| time (UTC) | temp F | wind direction | speed MPH | gust MPH | rain 1hr in | rain 24hr in | rain mn in | humidity % | barometer mb |
| 20260902191058 | 68 | 248 | 6.0 | 17.0 | 0.00 | 0.07 | 0.07 | 82 | 1016.9 |
| 20260902190601 | 68 | 218 | 8.0 | 17.0 | 0.00 | 0.07 | 0.07 | 82 | 1016.9 |
| 20260902190104 | 68 | 286 | 5.0 | 14.0 | 0.00 | 0.07 | 0.07 | 82 | 1016.8 |
| 20260902185558 | 68 | 244 | 6.0 | 14.0 | 0.00 | 0.07 | 0.07 | 83 | 1016.9 |
| 20260902185103 | 68 | 231 | 5.0 | 13.0 | 0.00 | 0.07 | 0.07 | 82 | 1016.9 |
| 20260902184608 | 68 | 227 | 4.0 | 14.0 | 0.00 | 0.07 | 0.07 | 81 | 1016.8 |
| 20260902184058 | 68 | 255 | 6.0 | 14.0 | 0.00 | 0.07 | 0.07 | 81 | 1016.9 |
| 20260902183558 | 69 | 251 | 7.0 | 14.0 | 0.00 | 0.07 | 0.07 | 80 | 1016.8 |
| 20260902183140 | 69 | 225 | 7.0 | 14.0 | 0.00 | 0.07 | 0.07 | 81 | 1016.9 |
| 20260902182601 | 69 | 228 | 6.0 | 14.0 | 0.00 | 0.07 | 0.07 | 81 | 1016.8 |
| 20260902182059 | 69 | 261 | 4.0 | 14.0 | 0.00 | 0.07 | 0.07 | 82 | 1016.8 |
| 20260902181614 | 69 | 249 | 5.0 | 11.0 | 0.00 | 0.07 | 0.07 | 82 | 1016.8 |
| 20260902181058 | 69 | 261 | 3.0 | 9.0 | 0.00 | 0.07 | 0.07 | 84 | 1016.9 |
| 20260902180559 | 69 | 239 | 3.0 | 10.0 | 0.00 | 0.07 | 0.07 | 84 | 1016.7 |
| 20260902180109 | 69 | 308 | 3.0 | 12.0 | 0.00 | 0.07 | 0.07 | 84 | 1016.7 |
| 20260902175559 | 69 | 284 | 5.0 | 12.0 | 0.00 | 0.07 | 0.07 | 84 | 1016.8 |
| 20260902175100 | 69 | 286 | 5.0 | 15.0 | 0.00 | 0.07 | 0.07 | 84 | 1016.6 |
| 20260902174604 | 69 | 296 | 5.0 | 15.0 | 0.00 | 0.07 | 0.07 | 84 | 1016.7 |
| 20260902174057 | 69 | 279 | 6.0 | 15.0 | 0.00 | 0.07 | 0.07 | 84 | 1016.7 |
| 20260902173559 | 69 | 268 | 6.0 | 11.0 | 0.00 | 0.07 | 0.07 | 85 | 1016.7 |
| 20260902173108 | 69 | 237 | 5.0 | 14.0 | 0.00 | 0.07 | 0.07 | 84 | 1016.7 |
| 20260902172559 | 69 | 360 | 3.0 | 14.0 | 0.00 | 0.07 | 0.07 | 83 | 1016.6 |
| 20260902172100 | 69 | 269 | 7.0 | 14.0 | 0.00 | 0.07 | 0.07 | 83 | 1016.6 |
| 20260902171628 | 69 | 252 | 3.0 | 10.0 | 0.00 | 0.07 | 0.07 | 85 | 1016.6 |
| 20260902171056 | 69 | 291 | 6.0 | 10.0 | 0.00 | 0.07 | 0.07 | 85 | 1016.5 |
| 20260902170557 | 69 | 311 | 6.0 | 12.0 | 0.00 | 0.07 | 0.07 | 85 | 1016.6 |
| 20260902170111 | 69 | 271 | 5.0 | 13.0 | 0.00 | 0.07 | 0.07 | 84 | 1016.7 |
| 20260902165558 | 69 | 278 | 5.0 | 13.0 | 0.00 | 0.07 | 0.07 | 83 | 1016.6 |
| 20260902165101 | 69 | 278 | 5.0 | 13.0 | 0.00 | 0.07 | 0.07 | 84 | 1016.7 |
| 20260902164633 | 70 | 270 | 7.0 | 12.0 | 0.00 | 0.07 | 0.07 | 84 | 1016.7 |
| 20260902164059 | 70 | 360 | 5.0 | 12.0 | 0.00 | 0.07 | 0.07 | 84 | 1016.6 |
| 20260902163559 | 70 | 302 | 6.0 | 11.0 | 0.00 | 0.07 | 0.07 | 84 | 1016.8 |
| 20260902163107 | 70 | 271 | 3.0 | 10.0 | 0.00 | 0.07 | 0.07 | 86 | 1016.7 |
| 20260902162556 | 69 | 227 | 3.0 | 11.0 | 0.00 | 0.07 | 0.07 | 86 | 1016.6 |
| 20260902162058 | 69 | 300 | 5.0 | 14.0 | 0.00 | 0.07 | 0.07 | 86 | 1016.7 |
| 20260902161605 | 69 | 360 | 7.0 | 14.0 | 0.00 | 0.07 | 0.07 | 85 | 1016.6 |
| 20260902161101 | 70 | 293 | 7.0 | 14.0 | 0.00 | 0.07 | 0.07 | 86 | 1016.7 |
| 20260902160600 | 70 | 265 | 6.0 | 12.0 | 0.00 | 0.07 | 0.07 | 86 | 1016.5 |
| 20260902160112 | 70 | 296 | 5.0 | 12.0 | 0.00 | 0.07 | 0.07 | 86 | 1016.4 |
| 20260902155602 | 70 | 284 | 7.0 | 12.0 | 0.00 | 0.07 | 0.07 | 86 | 1016.4 |
| 20260902155103 | 70 | 313 | 7.0 | 10.0 | 0.00 | 0.07 | 0.07 | 87 | 1016.4 |
| 20260902154604 | 70 | 289 | 4.0 | 9.0 | 0.03 | 0.07 | 0.07 | 87 | 1016.4 |
| 20260902154102 | 70 | 290 | 4.0 | 10.0 | 0.03 | 0.07 | 0.07 | 87 | 1016.4 |
| 20260902153603 | 70 | 292 | 3.0 | 10.0 | 0.03 | 0.07 | 0.07 | 87 | 1016.3 |
| 20260902153103 | 70 | 244 | 4.0 | 8.0 | 0.03 | 0.07 | 0.07 | 88 | 1016.5 |
| 20260902152604 | 70 | 234 | 3.0 | 8.0 | 0.03 | 0.07 | 0.07 | 90 | 1016.5 |
| 20260902152059 | 70 | 235 | 4.0 | 10.0 | 0.03 | 0.07 | 0.07 | 88 | 1016.6 |
| 20260902151604 | 70 | 229 | 5.0 | 11.0 | 0.03 | 0.07 | 0.07 | 89 | 1016.5 |
| 20260902151105 | 69 | 246 | 5.0 | 14.0 | 0.03 | 0.07 | 0.07 | 90 | 1016.6 |
| 20260902150600 | 69 | 231 | 6.0 | 14.0 | 0.03 | 0.07 | 0.07 | 89 | 1016.7 |
| 20260902150109 | 69 | 232 | 7.0 | 12.0 | 0.03 | 0.07 | 0.07 | 90 | 1016.7 |
| 20260902145601 | 68 | 227 | 5.0 | 15.0 | 0.03 | 0.06 | 0.06 | 89 | 1016.7 |
| 20260902145102 | 69 | 224 | 6.0 | 18.0 | 0.03 | 0.06 | 0.06 | 87 | 1016.8 |
| 20260902144610 | 69 | 217 | 7.0 | 18.0 | 0.00 | 0.03 | 0.03 | 85 | 1016.7 |
| 20260902144057 | 70 | 233 | 8.0 | 18.0 | 0.00 | 0.03 | 0.03 | 82 | 1016.6 |
| 20260902143602 | 71 | 208 | 9.0 | 18.0 | 0.00 | 0.03 | 0.03 | 78 | 1016.4 |
| 20260902143109 | 71 | 201 | 9.0 | 18.0 | 0.00 | 0.03 | 0.03 | 79 | 1016.5 |
| 20260902142601 | 71 | 197 | 10.0 | 18.0 | 0.00 | 0.03 | 0.03 | 77 | 1016.5 |
| 20260902142101 | 71 | 190 | 10.0 | 18.0 | 0.00 | 0.03 | 0.03 | 77 | 1016.4 |
| 20260902141602 | 72 | 204 | 7.0 | 13.0 | 0.00 | 0.03 | 0.03 | 78 | 1016.4 |
| 20260902141101 | 72 | 198 | 7.0 | 15.0 | 0.00 | 0.03 | 0.03 | 77 | 1016.6 |
| 20260902140558 | 72 | 190 | 8.0 | 18.0 | 0.00 | 0.03 | 0.03 | 77 | 1016.5 |
| 20260902140105 | 72 | 231 | 8.0 | 19.0 | 0.00 | 0.03 | 0.03 | 76 | 1016.6 |
| 20260902135557 | 72 | 208 | 9.0 | 20.0 | 0.00 | 0.03 | 0.03 | 76 | 1016.5 |
| 20260902135102 | 73 | 214 | 9.0 | 20.0 | 0.00 | 0.03 | 0.03 | 75 | 1016.6 |
| 20260902134607 | 73 | 204 | 11.0 | 20.0 | 0.00 | 0.03 | 0.03 | 74 | 1016.6 |
| 20260902134058 | 74 | 186 | 10.0 | 21.0 | 0.00 | 0.03 | 0.03 | 74 | 1016.6 |
| 20260902133557 | 74 | 207 | 12.0 | 21.0 | 0.00 | 0.03 | 0.03 | 73 | 1016.7 |
| 20260902133104 | 74 | 188 | 12.0 | 21.0 | 0.00 | 0.03 | 0.03 | 74 | 1016.7 |
| 20260902132601 | 73 | 185 | 9.0 | 20.0 | 0.00 | 0.03 | 0.03 | 75 | 1016.7 |
| 20260902132116 | 73 | 213 | 10.0 | 19.0 | 0.00 | 0.03 | 0.03 | 77 | 1016.7 |
| 20260902131612 | 73 | 236 | 12.0 | 21.0 | 0.00 | 0.03 | 0.03 | 74 | 1017.0 |
| 20260902131057 | 73 | 220 | 11.0 | 24.0 | 0.00 | 0.03 | 0.03 | 76 | 1017.0 |
| 20260902130557 | 72 | 198 | 11.0 | 24.0 | 0.00 | 0.03 | 0.03 | 76 | 1016.9 |
| 20260902130113 | 71 | 209 | 12.0 | 22.0 | 0.00 | 0.03 | 0.03 | 77 | 1017.1 |
| 20260902125559 | 72 | 199 | 11.0 | 20.0 | 0.00 | 0.03 | 0.03 | 78 | 1017.0 |
| 20260902125101 | 71 | 198 | 10.0 | 18.0 | 0.00 | 0.03 | 0.03 | 78 | 1017.0 |
| 20260902124604 | 71 | 209 | 9.0 | 15.0 | 0.00 | 0.03 | 0.03 | 78 | 1016.9 |
| 20260902124100 | 71 | 211 | 9.0 | 22.0 | 0.00 | 0.03 | 0.03 | 80 | 1017.0 |
| 20260902123557 | 70 | 186 | 10.0 | 22.0 | 0.00 | 0.03 | 0.03 | 79 | 1017.2 |
| 20260902123114 | 70 | 198 | 9.0 | 20.0 | 0.00 | 0.03 | 0.03 | 78 | 1017.1 |
| 20260902122557 | 70 | 202 | 10.0 | 20.0 | 0.00 | 0.03 | 0.03 | 79 | 1017.1 |
| 20260902122057 | 71 | 213 | 12.0 | 23.0 | 0.00 | 0.03 | 0.03 | 78 | 1017.1 |
| 20260902121600 | 70 | 237 | 8.0 | 24.0 | 0.00 | 0.03 | 0.03 | 82 | 1017.1 |
| 20260902121057 | 70 | 202 | 12.0 | 24.0 | 0.00 | 0.03 | 0.03 | 80 | 1017.1 |
| 20260902120600 | 70 | 134 | 12.0 | 20.0 | 0.00 | 0.03 | 0.03 | 78 | 1017.1 |
| 20260902120108 | 70 | 192 | 10.0 | 17.0 | 0.00 | 0.03 | 0.03 | 79 | 1017.0 |
| 20260902115600 | 70 | 193 | 10.0 | 21.0 | 0.00 | 0.03 | 0.03 | 80 | 1017.1 |
| 20260902115059 | 69 | 205 | 13.0 | 23.0 | 0.00 | 0.03 | 0.03 | 81 | 1017.2 |
| 20260902114621 | 70 | 240 | 13.0 | 23.0 | 0.00 | 0.03 | 0.03 | 79 | 1017.2 |
| 20260902114103 | 69 | 187 | 11.0 | 22.0 | 0.00 | 0.03 | 0.03 | 81 | 1017.2 |
| 20260902113557 | 69 | 202 | 10.0 | 21.0 | 0.00 | 0.03 | 0.03 | 80 | 1017.4 |
| 20260902113103 | 69 | 215 | 12.0 | 21.0 | 0.00 | 0.03 | 0.03 | 82 | 1017.5 |
| 20260902112557 | 68 | 215 | 10.0 | 21.0 | 0.00 | 0.03 | 0.03 | 81 | 1017.5 |
| 20260902112057 | 68 | 196 | 10.0 | 22.0 | 0.00 | 0.03 | 0.03 | 81 | 1017.6 |
| 20260902111604 | 68 | 221 | 11.0 | 22.0 | 0.00 | 0.03 | 0.03 | 80 | 1017.6 |
| 20260902111058 | 67 | 223 | 8.0 | 15.0 | 0.00 | 0.03 | 0.03 | 83 | 1017.7 |
| 20260902110557 | 67 | 239 | 4.0 | 18.0 | 0.00 | 0.03 | 0.03 | 82 | 1017.7 |
| 20260902110107 | 66 | 218 | 7.0 | 19.0 | 0.00 | 0.03 | 0.03 | 83 | 1017.8 |
| 20260902105556 | 66 | 180 | 8.0 | 19.0 | 0.00 | 0.03 | 0.03 | 83 | 1017.8 |
| 20260902105056 | 66 | 203 | 5.0 | 11.0 | 0.00 | 0.03 | 0.03 | 84 | 1017.9 |
| 20260902104603 | 66 | 196 | 6.0 | 17.0 | 0.00 | 0.03 | 0.03 | 84 | 1018.0 |
| 20260902104057 | 66 | 238 | 6.0 | 18.0 | 0.00 | 0.03 | 0.03 | 84 | 1017.9 |
| 20260902103557 | 66 | 217 | 7.0 | 18.0 | 0.00 | 0.03 | 0.03 | 83 | 1017.9 |
| 20260902103109 | 66 | 200 | 8.0 | 16.0 | 0.00 | 0.03 | 0.03 | 82 | 1017.9 |
| 20260902102557 | 66 | 219 | 6.0 | 16.0 | 0.00 | 0.03 | 0.03 | 83 | 1017.8 |
| 20260902102057 | 66 | 181 | 7.0 | 14.0 | 0.00 | 0.03 | 0.03 | 83 | 1017.9 |
| 20260902101642 | 65 | 190 | 5.0 | 15.0 | 0.00 | 0.03 | 0.03 | 83 | 1017.8 |
| 20260902101057 | 65 | 173 | 7.0 | 15.0 | 0.00 | 0.03 | 0.03 | 84 | 1018.0 |
| 20260902100558 | 65 | 198 | 5.0 | 13.0 | 0.00 | 0.03 | 0.03 | 85 | 1017.9 |
| 20260902100104 | 65 | 184 | 6.0 | 14.0 | 0.00 | 0.03 | 0.03 | 86 | 1017.9 |
| 20260902095556 | 65 | 205 | 5.0 | 14.0 | 0.00 | 0.03 | 0.03 | 86 | 1017.9 |
| 20260902095057 | 65 | 197 | 6.0 | 13.0 | 0.00 | 0.03 | 0.03 | 85 | 1018.1 |
| 20260902094605 | 64 | 178 | 6.0 | 13.0 | 0.00 | 0.03 | 0.03 | 88 | 1018.2 |
| 20260902094057 | 64 | 196 | 5.0 | 13.0 | 0.00 | 0.03 | 0.03 | 87 | 1018.1 |
| 20260902093556 | 64 | 171 | 6.0 | 12.0 | 0.00 | 0.03 | 0.03 | 89 | 1018.1 |
| 20260902093104 | 64 | 169 | 5.0 | 12.0 | 0.01 | 0.03 | 0.03 | 90 | 1018.2 |
| 20260902092601 | 63 | 142 | 5.0 | 12.0 | 0.01 | 0.03 | 0.03 | 89 | 1018.2 |
| 20260902092057 | 63 | 184 | 3.0 | 9.0 | 0.01 | 0.03 | 0.03 | 89 | 1018.2 |
| 20260902091604 | 63 | 193 | 4.0 | 10.0 | 0.02 | 0.03 | 0.03 | 89 | 1018.3 |
| 20260902091057 | 63 | 156 | 3.0 | 11.0 | 0.02 | 0.03 | 0.03 | 89 | 1018.3 |
| 20260902090558 | 62 | 167 | 4.0 | 11.0 | 0.02 | 0.03 | 0.03 | 90 | 1018.3 |
| 20260902090105 | 62 | 188 | 4.0 | 11.0 | 0.02 | 0.03 | 0.03 | 90 | 1018.4 |
| 20260902085557 | 62 | 179 | 5.0 | 11.0 | 0.02 | 0.03 | 0.03 | 90 | 1018.5 |
| 20260902085057 | 63 | 189 | 2.0 | 8.0 | 0.01 | 0.02 | 0.02 | 90 | 1018.7 |
| 20260902084607 | 63 | 186 | 2.0 | 7.0 | 0.01 | 0.02 | 0.02 | 89 | 1018.6 |
| 20260902084058 | 63 | 166 | 3.0 | 7.0 | 0.01 | 0.02 | 0.02 | 89 | 1018.6 |
| 20260902083600 | 63 | 184 | 3.0 | 8.0 | 0.01 | 0.02 | 0.02 | 89 | 1018.7 |
| 20260902083104 | 63 | 130 | 3.0 | 8.0 | 0.00 | 0.01 | 0.01 | 89 | 1018.7 |
| 20260902082558 | 63 | 155 | 3.0 | 7.0 | 0.00 | 0.01 | 0.01 | 89 | 1018.7 |
| 20260902082058 | 63 | 170 | 2.0 | 7.0 | 0.00 | 0.01 | 0.01 | 89 | 1018.7 |
| 20260902081604 | 63 | 191 | 3.0 | 7.0 | 0.00 | 0.00 | 0.00 | 89 | 1018.6 |
| 20260902081059 | 63 | 127 | 1.0 | 4.0 | 0.00 | 0.00 | 0.00 | 89 | 1018.6 |
| 20260902080558 | 63 | 176 | 1.0 | 6.0 | 0.00 | 0.00 | 0.00 | 89 | 1018.6 |
| 20260902080104 | 63 | 116 | 2.0 | 7.0 | 0.00 | 0.00 | 0.00 | 89 | 1018.7 |
| 20260902075557 | 63 | 157 | 3.0 | 7.0 | 0.00 | 0.00 | 0.00 | 89 | 1018.7 |
| 20260902075059 | 63 | 125 | 1.0 | 7.0 | 0.00 | 0.00 | 0.00 | 89 | 1018.7 |
| 20260902074603 | 62 | 153 | 2.0 | 5.0 | 0.00 | 0.00 | 0.00 | 89 | 1018.7 |
| 20260902074059 | 62 | 168 | 1.0 | 6.0 | 0.00 | 0.00 | 0.00 | 89 | 1018.7 |
| 20260902073557 | 62 | 142 | 2.0 | 6.0 | 0.00 | 0.00 | 0.00 | 89 | 1018.7 |
| 20260902073104 | 62 | 162 | 2.0 | 5.0 | 0.00 | 0.00 | 0.00 | 89 | 1018.7 |
| 20260902072557 | 62 | 114 | 1.0 | 5.0 | 0.00 | 0.00 | 0.00 | 89 | 1018.6 |
| 20260902072101 | 61 | 0 | 2.0 | 5.0 | 0.00 | 0.00 | 0.00 | 89 | 1018.7 |
| 20260902071602 | 61 | 168 | 1.0 | 6.0 | 0.00 | 0.00 | 0.00 | 89 | 1018.8 |
| 20260902071057 | 61 | 162 | 1.0 | 6.0 | 0.00 | 0.00 | 0.00 | 89 | 1018.7 |
| 20260902070557 | 61 | 148 | 1.0 | 6.0 | 0.00 | 0.00 | 0.00 | 89 | 1018.8 |
| 20260902070110 | 61 | 174 | 0.0 | 4.0 | 0.00 | 0.00 | 0.00 | 88 | 1018.9 |
| 20260902065601 | 61 | 155 | 1.0 | 5.0 | 0.00 | 0.00 | 0.00 | 88 | 1018.9 |
| 20260902065058 | 61 | 150 | 2.0 | 5.0 | 0.00 | 0.00 | 0.00 | 88 | 1018.8 |
| 20260902064609 | 61 | 186 | 2.0 | 6.0 | 0.00 | 0.00 | 0.00 | 88 | 1018.6 |
| 20260902064102 | 61 | 192 | 3.0 | 6.0 | 0.00 | 0.00 | 0.00 | 88 | 1018.7 |
| 20260902063558 | 61 | 191 | 3.0 | 6.0 | 0.00 | 0.00 | 0.00 | 88 | 1018.8 |
| 20260902063109 | 61 | 202 | 2.0 | 6.0 | 0.00 | 0.00 | 0.00 | 88 | 1019.0 |
| 20260902062558 | 61 | 169 | 2.0 | 6.0 | 0.00 | 0.00 | 0.00 | 88 | 1018.8 |
| 20260902062057 | 61 | 180 | 2.0 | 6.0 | 0.00 | 0.00 | 0.00 | 88 | 1018.7 |
| 20260902061608 | 61 | 158 | 2.0 | 6.0 | 0.00 | 0.00 | 0.00 | 87 | 1018.6 |
| 20260902061057 | 61 | 178 | 2.0 | 6.0 | 0.00 | 0.00 | 0.00 | 87 | 1018.8 |
| 20260902060556 | 61 | 178 | 3.0 | 7.0 | 0.00 | 0.00 | 0.00 | 87 | 1018.5 |
| 20260902060127 | 60 | 184 | 2.0 | 7.0 | 0.00 | 0.00 | 0.00 | 87 | 1018.5 |
| 20260902055557 | 60 | 155 | 2.0 | 7.0 | 0.00 | 0.00 | 0.00 | 87 | 1018.4 |
| 20260902055100 | 60 | 179 | 3.0 | 7.0 | 0.00 | 0.00 | 0.00 | 87 | 1018.4 |
| 20260902054604 | 60 | 151 | 2.0 | 6.0 | 0.00 | 0.00 | 0.00 | 87 | 1018.4 |
| 20260902054057 | 60 | 125 | 1.0 | 5.0 | 0.00 | 0.00 | 0.00 | 87 | 1018.7 |
| 20260902053557 | 60 | 144 | 2.0 | 5.0 | 0.00 | 0.00 | 0.00 | 87 | 1018.7 |
| 20260902053103 | 60 | 161 | 2.0 | 5.0 | 0.00 | 0.00 | 0.00 | 86 | 1018.7 |
| 20260902052559 | 60 | 0 | 1.0 | 5.0 | 0.00 | 0.00 | 0.00 | 86 | 1018.7 |
| 20260902052057 | 60 | 170 | 2.0 | 5.0 | 0.00 | 0.00 | 0.00 | 86 | 1018.8 |
| 20260902051609 | 60 | 123 | 2.0 | 5.0 | 0.00 | 0.00 | 0.00 | 86 | 1018.8 |
| 20260902051101 | 60 | 138 | 2.0 | 7.0 | 0.00 | 0.00 | 0.00 | 86 | 1018.8 |
| 20260902050557 | 60 | 178 | 2.0 | 7.0 | 0.00 | 0.00 | 0.00 | 86 | 1018.7 |
| 20260902050105 | 60 | 155 | 3.0 | 7.0 | 0.00 | 0.00 | 0.00 | 85 | 1018.7 |
| 20260902045557 | 60 | 103 | 3.0 | 7.0 | 0.00 | 0.00 | 0.00 | 85 | 1018.7 |
| 20260902045057 | 60 | 113 | 4.0 | 7.0 | 0.00 | 0.00 | 0.00 | 85 | 1018.8 |
| 20260902044609 | 60 | 121 | 2.0 | 8.0 | 0.00 | 0.00 | 0.00 | 85 | 1018.8 |
| 20260902044058 | 60 | 167 | 3.0 | 8.0 | 0.00 | 0.00 | 0.00 | 85 | 1018.8 |
| 20260902043557 | 60 | 165 | 3.0 | 5.0 | 0.00 | 0.00 | 0.00 | 85 | 1018.8 |
| 20260902043104 | 61 | 128 | 2.0 | 5.0 | 0.00 | 0.00 | 0.00 | 85 | 1018.8 |
| 20260902042557 | 61 | 190 | 2.0 | 5.0 | 0.00 | 0.00 | 0.00 | 85 | 1018.8 |
| 20260902042058 | 61 | 119 | 1.0 | 5.0 | 0.00 | 0.00 | 0.00 | 84 | 1018.9 |
| 20260902041611 | 61 | 143 | 1.0 | 6.0 | 0.00 | 0.00 | 0.00 | 84 | 1018.9 |
| 20260902041057 | 61 | 159 | 2.0 | 6.0 | 0.00 | 0.00 | 0.00 | 84 | 1018.8 |
| 20260902040558 | 61 | 180 | 2.0 | 6.0 | 0.00 | 0.00 | 0.00 | 84 | 1019.0 |
| 20260902040104 | 61 | 145 | 2.0 | 7.0 | 0.00 | 0.00 | 0.00 | 84 | 1019.0 |
| 20260902035558 | 61 | 209 | 2.0 | 7.0 | 0.00 | 0.00 | 0.00 | 85 | 1019.2 |
| 20260902035059 | 60 | 183 | 2.0 | 6.0 | 0.00 | 0.00 | 0.00 | 85 | 1019.2 |
| 20260902034604 | 60 | 166 | 2.0 | 6.0 | 0.00 | 0.00 | 0.00 | 85 | 1019.2 |
| 20260902034100 | 60 | 177 | 2.0 | 5.0 | 0.00 | 0.00 | 0.00 | 85 | 1019.2 |
| 20260902033557 | 60 | 184 | 2.0 | 5.0 | 0.00 | 0.00 | 0.00 | 85 | 1019.3 |
| 20260902033107 | 60 | 0 | 2.0 | 5.0 | 0.00 | 0.00 | 0.00 | 85 | 1019.3 |
| 20260902032603 | 60 | 101 | 2.0 | 5.0 | 0.00 | 0.00 | 0.00 | 85 | 1019.2 |
| 20260902032057 | 60 | 146 | 2.0 | 5.0 | 0.00 | 0.00 | 0.00 | 85 | 1019.2 |
| 20260902031609 | 60 | 150 | 2.0 | 4.0 | 0.00 | 0.00 | 0.00 | 85 | 1019.2 |
| 20260902031058 | 60 | 142 | 1.0 | 5.0 | 0.00 | 0.00 | 0.00 | 85 | 1019.3 |
| 20260902030601 | 60 | 104 | 1.0 | 5.0 | 0.00 | 0.00 | 0.00 | 85 | 1019.4 |
| 20260902030109 | 60 | 143 | 1.0 | 5.0 | 0.00 | 0.00 | 0.00 | 85 | 1019.5 |
| 20260902025558 | 60 | 137 | 1.0 | 5.0 | 0.00 | 0.00 | 0.00 | 85 | 1019.4 |
| 20260902025058 | 60 | 123 | 1.0 | 6.0 | 0.00 | 0.00 | 0.00 | 85 | 1019.6 |
| 20260902024607 | 60 | 134 | 1.0 | 7.0 | 0.00 | 0.00 | 0.00 | 85 | 1019.5 |
| 20260902024059 | 60 | 202 | 3.0 | 8.0 | 0.00 | 0.00 | 0.00 | 85 | 1019.6 |
| 20260902023559 | 60 | 175 | 3.0 | 8.0 | 0.00 | 0.00 | 0.00 | 85 | 1019.5 |
| 20260902023110 | 60 | 169 | 3.0 | 6.0 | 0.00 | 0.00 | 0.00 | 85 | 1019.7 |
| 20260902022602 | 60 | 167 | 3.0 | 7.0 | 0.00 | 0.00 | 0.00 | 86 | 1019.7 |
| 20260902022101 | 60 | 211 | 3.0 | 7.0 | 0.00 | 0.00 | 0.00 | 86 | 1019.6 |
| 20260902021604 | 60 | 164 | 2.0 | 5.0 | 0.00 | 0.00 | 0.00 | 85 | 1019.8 |
| 20260902021103 | 60 | 0 | 2.0 | 5.0 | 0.00 | 0.00 | 0.00 | 85 | 1019.9 |
| 20260902020558 | 60 | 117 | 0.0 | 2.0 | 0.00 | 0.00 | 0.00 | 85 | 1019.9 |
| 20260902020115 | 60 | 0 | 0.0 | 5.0 | 0.00 | 0.00 | 0.00 | 85 | 1019.9 |
| 20260902015559 | 60 | 144 | 1.0 | 6.0 | 0.00 | 0.00 | 0.00 | 85 | 1019.9 |
| 20260902015100 | 60 | 174 | 1.0 | 6.0 | 0.00 | 0.00 | 0.00 | 85 | 1020.1 |
| 20260902014602 | 60 | 167 | 2.0 | 5.0 | 0.00 | 0.00 | 0.00 | 85 | 1020.1 |
| 20260902014100 | 60 | 176 | 2.0 | 5.0 | 0.00 | 0.00 | 0.00 | 85 | 1020.2 |
| 20260902013559 | 60 | 159 | 2.0 | 5.0 | 0.00 | 0.00 | 0.00 | 85 | 1020.1 |
| 20260902013103 | 60 | 177 | 1.0 | 4.0 | 0.00 | 0.00 | 0.00 | 85 | 1020.1 |
| 20260902012558 | 60 | 182 | 1.0 | 4.0 | 0.00 | 0.00 | 0.00 | 85 | 1020.0 |
| 20260902012058 | 60 | 180 | 2.0 | 4.0 | 0.00 | 0.00 | 0.00 | 85 | 1020.1 |
| 20260902011601 | 60 | 199 | 1.0 | 4.0 | 0.00 | 0.00 | 0.00 | 84 | 1020.2 |
| 20260902011100 | 60 | 192 | 1.0 | 3.0 | 0.00 | 0.00 | 0.00 | 84 | 1020.3 |
| 20260902010559 | 60 | 0 | 1.0 | 4.0 | 0.00 | 0.00 | 0.00 | 84 | 1020.2 |
| 20260902005558 | 61 | 190 | 2.0 | 5.0 | 0.00 | 0.00 | 0.00 | 83 | 1020.2 |
| 20260902005103 | 61 | 180 | 1.0 | 5.0 | 0.00 | 0.00 | 0.00 | 83 | 1020.3 |
| 20260902004605 | 61 | 151 | 2.0 | 5.0 | 0.00 | 0.00 | 0.00 | 83 | 1020.2 |
| 20260902004059 | 61 | 176 | 1.0 | 4.0 | 0.00 | 0.00 | 0.00 | 83 | 1020.3 |
| 20260902003559 | 61 | 198 | 1.0 | 5.0 | 0.00 | 0.00 | 0.00 | 83 | 1020.2 |
| 20260902003106 | 61 | 188 | 2.0 | 6.0 | 0.00 | 0.00 | 0.00 | 83 | 1020.3 |
| 20260902002601 | 61 | 197 | 2.0 | 7.0 | 0.00 | 0.00 | 0.00 | 83 | 1020.4 |
| 20260902002058 | 61 | 208 | 3.0 | 8.0 | 0.00 | 0.00 | 0.00 | 84 | 1020.5 |
| 20260902001605 | 61 | 201 | 3.0 | 8.0 | 0.00 | 0.00 | 0.00 | 84 | 1020.5 |
| 20260902001059 | 61 | 225 | 3.0 | 6.0 | 0.00 | 0.00 | 0.00 | 84 | 1020.6 |
| 20260902000559 | 61 | 211 | 3.0 | 6.0 | 0.00 | 0.00 | 0.00 | 84 | 1020.6 |
| 20260902000121 | 60 | 211 | 1.0 | 4.0 | 0.00 | 0.00 | 0.00 | 84 | 1020.6 |
| 20260901235601 | 60 | 0 | 1.0 | 4.0 | 0.00 | 0.00 | 0.00 | 83 | 1020.4 |
| 20260901235100 | 61 | 171 | 1.0 | 4.0 | 0.00 | 0.00 | 0.00 | 83 | 1020.6 |
| 20260901234605 | 61 | 178 | 1.0 | 4.0 | 0.00 | 0.00 | 0.00 | 83 | 1020.7 |
| 20260901234102 | 61 | 131 | 2.0 | 4.0 | 0.00 | 0.00 | 0.00 | 82 | 1020.8 |
| 20260901233559 | 61 | 138 | 1.0 | 3.0 | 0.00 | 0.00 | 0.00 | 82 | 1020.8 |
| 20260901233106 | 61 | 152 | 1.0 | 3.0 | 0.00 | 0.00 | 0.00 | 81 | 1020.6 |
| 20260901232600 | 61 | 165 | 1.0 | 3.0 | 0.00 | 0.00 | 0.00 | 81 | 1020.6 |
| 20260901232059 | 61 | 164 | 1.0 | 3.0 | 0.00 | 0.00 | 0.00 | 81 | 1020.7 |
| 20260901231603 | 61 | 164 | 0.0 | 3.0 | 0.00 | 0.00 | 0.00 | 80 | 1020.7 |
| 20260901231058 | 61 | 146 | 1.0 | 4.0 | 0.00 | 0.00 | 0.00 | 80 | 1020.6 |
| 20260901230559 | 61 | 134 | 1.0 | 4.0 | 0.00 | 0.00 | 0.00 | 80 | 1020.6 |
| 20260901230115 | 61 | 134 | 0.0 | 3.0 | 0.00 | 0.00 | 0.00 | 80 | 1020.6 |
| 20260901225559 | 61 | 0 | 0.0 | 0.0 | 0.00 | 0.00 | 0.00 | 80 | 1020.7 |
| 20260901225100 | 61 | 0 | 0.0 | 0.0 | 0.00 | 0.00 | 0.00 | 80 | 1020.6 |
| 20260901224606 | 61 | 0 | 0.0 | 0.0 | 0.00 | 0.00 | 0.00 | 80 | 1020.6 |
| 20260901224059 | 61 | 0 | 0.0 | 0.0 | 0.00 | 0.00 | 0.00 | 80 | 1020.7 |
| 20260901223559 | 61 | 0 | 0.0 | 0.0 | 0.00 | 0.00 | 0.00 | 80 | 1020.5 |
| 20260901223116 | 61 | 0 | 0.0 | 0.0 | 0.00 | 0.00 | 0.00 | 80 | 1020.5 |
| 20260901222559 | 61 | 0 | 0.0 | 0.0 | 0.00 | 0.00 | 0.00 | 79 | 1020.6 |
| 20260901222100 | 61 | 0 | 0.0 | 0.0 | 0.00 | 0.00 | 0.00 | 79 | 1020.6 |
| 20260901221612 | 61 | 0 | 0.0 | 0.0 | 0.00 | 0.00 | 0.00 | 79 | 1020.6 |
| 20260901221059 | 62 | 0 | 0.0 | 0.0 | 0.00 | 0.00 | 0.00 | 79 | 1020.6 |
| 20260901220559 | 62 | 0 | 0.0 | 0.0 | 0.00 | 0.00 | 0.00 | 79 | 1020.5 |
| 20260901220134 | 62 | 0 | 0.0 | 2.0 | 0.00 | 0.00 | 0.00 | 78 | 1020.5 |
| 20260901215559 | 62 | 0 | 0.0 | 2.0 | 0.00 | 0.00 | 0.00 | 78 | 1020.5 |
| 20260901215102 | 62 | 192 | 0.0 | 2.0 | 0.00 | 0.00 | 0.00 | 78 | 1020.7 |
| 20260901214604 | 62 | 192 | 1.0 | 3.0 | 0.00 | 0.00 | 0.00 | 77 | 1020.7 |
| 20260901214059 | 62 | 0 | 1.0 | 3.0 | 0.00 | 0.00 | 0.00 | 77 | 1020.7 |
| 20260901213559 | 62 | 205 | 1.0 | 4.0 | 0.00 | 0.00 | 0.00 | 77 | 1020.7 |
| 20260901213128 | 62 | 171 | 1.0 | 4.0 | 0.00 | 0.00 | 0.00 | 77 | 1020.7 |
| 20260901212559 | 62 | 200 | 1.0 | 4.0 | 0.00 | 0.00 | 0.00 | 77 | 1020.7 |
| 20260901212059 | 62 | 205 | 1.0 | 4.0 | 0.00 | 0.00 | 0.00 | 77 | 1020.8 |
| 20260901211605 | 62 | 195 | 1.0 | 4.0 | 0.00 | 0.00 | 0.00 | 77 | 1020.8 |
| 20260901211059 | 62 | 197 | 1.0 | 4.0 | 0.00 | 0.00 | 0.00 | 77 | 1020.7 |
| 20260901210558 | 62 | 192 | 1.0 | 4.0 | 0.00 | 0.00 | 0.00 | 77 | 1020.7 |
| 20260901210108 | 62 | 190 | 1.0 | 4.0 | 0.00 | 0.00 | 0.00 | 77 | 1020.7 |
| 20260901205559 | 62 | 188 | 1.0 | 4.0 | 0.00 | 0.00 | 0.00 | 77 | 1020.8 |
| 20260901205100 | 62 | 186 | 1.0 | 4.0 | 0.00 | 0.00 | 0.00 | 76 | 1020.7 |
| 20260901204619 | 62 | 200 | 1.0 | 4.0 | 0.00 | 0.00 | 0.00 | 76 | 1020.7 |
| 20260901204059 | 62 | 223 | 2.0 | 4.0 | 0.00 | 0.00 | 0.00 | 77 | 1020.8 |
| 20260901203601 | 62 | 231 | 1.0 | 4.0 | 0.00 | 0.00 | 0.00 | 77 | 1020.9 |
| 20260901203110 | 62 | 0 | 1.0 | 3.0 | 0.00 | 0.00 | 0.00 | 77 | 1020.8 |
| 20260901202601 | 62 | 234 | 0.0 | 2.0 | 0.00 | 0.00 | 0.00 | 76 | 1020.7 |
| 20260901202103 | 63 | 234 | 1.0 | 3.0 | 0.00 | 0.00 | 0.00 | 76 | 1020.7 |
| 20260901201610 | 63 | 234 | 0.0 | 4.0 | 0.00 | 0.00 | 0.00 | 75 | 1020.7 |
| 20260901201100 | 63 | 211 | 1.0 | 5.0 | 0.00 | 0.00 | 0.00 | 75 | 1020.6 |
| 20260901200559 | 64 | 240 | 2.0 | 7.0 | 0.00 | 0.00 | 0.00 | 75 | 1020.7 |
| 20260901200104 | 64 | 284 | 3.0 | 7.0 | 0.00 | 0.00 | 0.00 | 75 | 1020.6 |
| 20260901195601 | 64 | 289 | 2.0 | 7.0 | 0.00 | 0.00 | 0.00 | 74 | 1020.7 |
| 20260901195059 | 64 | 275 | 3.0 | 7.0 | 0.00 | 0.00 | 0.00 | 74 | 1020.6 |
| 20260901194603 | 64 | 304 | 2.0 | 7.0 | 0.00 | 0.00 | 0.00 | 74 | 1020.7 |
| 20260901194101 | 64 | 237 | 2.0 | 8.0 | 0.00 | 0.00 | 0.00 | 73 | 1020.7 |
| 20260901193559 | 64 | 252 | 3.0 | 8.0 | 0.00 | 0.00 | 0.00 | 73 | 1020.7 |
| 20260901193119 | 64 | 287 | 3.0 | 10.0 | 0.00 | 0.00 | 0.00 | 74 | 1020.8 |
| 20260901192601 | 64 | 302 | 5.0 | 10.0 | 0.00 | 0.00 | 0.00 | 74 | 1020.6 |
| 20260901192110 | 64 | 273 | 4.0 | 10.0 | 0.00 | 0.00 | 0.00 | 74 | 1020.5 |